Doha, Qatar

10:14 PM +03 on June 23, 2017 (GMT +0300)
Doha International

Weather History for OTBD - December, 2012

Change the Weather History Date:

Tuesday, December 18, 2012

  Actual Average Record
Temperature  
Mean Temperature 68 °F -  
Max Temperature 72 °F 73 °F 84 °F (1998)
Min Temperature 63 °F 57 °F 51 °F (2006)
Cooling Degree Days 2    
Growing Degree Days 18 (Base 50)    
Moisture  
Dew Point 53 °F    
Average Humidity 57    
Maximum Humidity 68    
Minimum Humidity 40    
Precipitation  
Precipitation 0.00 in 0.02 in - ()
Sea Level Pressure  
Sea Level Pressure 30.21 in    
Wind  
Wind Speed 6 mph ()    
Max Wind Speed 12 mph    
Max Gust Speed -    
Visibility 7.9 miles    
Events      
Averages and records for this station are not official NWS values.
T = Trace of Precipitation, MM = Missing Value Source: Averaged Metar Reports

Daily Weather History Graph

Daily Weather History Graph

Search for Another Location

Airport or City:

Trip Planner

Search our weather history database for the weather conditions in past years. The results will help you decide how hot, cold, wet, or windy it might be!

Date:

Astronomy

Dec. 18, 2012 Rise Set
Actual Time 6:13 AM +03 4:47 PM +03
Civil Twilight 5:48 AM +03 5:12 PM +03
Nautical Twilight 5:19 AM +03 5:41 PM +03
Astronomical Twilight 4:51 AM +03 6:09 PM +03
Moon 10:10 AM +03 (12/18) 10:16 PM +03 (12/18)
Length of Visible Light 11h 24m
Length of Day
10h 34m
Waxing Crescent, 31% of the Moon is Illuminated
Dec 18
Waxing Crescent
Dec 20
First Quarter
Dec 28
Full
Jan 5
Last Quarter
Jan 11
New

Hourly Weather History & Observations

Time (+03) Temp. Dew Point Humidity Pressure Visibility Wind Dir Wind Speed Gust Speed Precip Events Conditions
12:00 AM 66.2 °F 46.4 °F 49% 30.18 in - NW 5.8 mph - N/A   Clear
1:00 AM 64.4 °F 48.2 °F 56% 30.18 in - NW 6.9 mph - N/A   Clear
3:00 AM 65 °F 48 °F 44% 30.18 in 7 mi NW 5.8 mph - -   Scattered Clouds
3:30 AM 64.4 °F 50.0 °F 59% 30.18 in - NW 3.5 mph - N/A   Clear
4:00 AM 64.4 °F 51.8 °F 64% 30.18 in - Variable 2.3 mph - N/A   Clear
5:00 AM 64.4 °F 50.0 °F 59% 30.18 in - WNW 3.5 mph - N/A   Clear
5:30 AM 64.4 °F 50.0 °F 59% 30.18 in - Variable 2.3 mph - N/A   Clear
6:00 AM 64.4 °F 50.0 °F 59% 30.21 in - WNW 3.5 mph - N/A   Clear
6:30 AM 64.4 °F 50.0 °F 59% 30.21 in - WNW 3.5 mph - N/A   Clear
7:00 AM 64.4 °F 50.0 °F 59% 30.21 in - WNW 3.5 mph - N/A   Clear
8:00 AM 68.0 °F 50.0 °F 52% 30.24 in - NNW 9.2 mph - N/A   Clear
8:30 AM 68.0 °F 50.0 °F 52% 30.24 in - NNW 6.9 mph - N/A   Clear
9:00 AM 69 °F 50 °F 40% 30.28 in 10 mi NNW 9.2 mph - -   Partly Cloudy
9:00 AM 69.8 °F 50.0 °F 49% 30.27 in - NNW 9.2 mph - N/A   Clear
9:30 AM 69.8 °F 51.8 °F 53% 30.27 in - NNW 11.5 mph - N/A   Clear
10:00 AM 69.8 °F 53.6 °F 56% 30.27 in - NNW 9.2 mph - N/A   Clear
11:00 AM 71.6 °F 55.4 °F 57% 30.24 in - North 8.1 mph - N/A   Clear
11:30 AM 71.6 °F 55.4 °F 57% 30.21 in 6.2 mi North 9.2 mph - N/A   Mostly Cloudy
12:00 PM 71.6 °F 55.4 °F 57% 30.21 in 6.2 mi North 10.4 mph - N/A   Mostly Cloudy
1:00 PM 71.6 °F 55.4 °F 57% 30.18 in 6.2 mi North 9.2 mph - N/A   Mostly Cloudy
1:30 PM 73.4 °F 55.4 °F 53% 30.18 in - North 10.4 mph - N/A   Clear
2:00 PM 73.4 °F 53.6 °F 50% 30.18 in - North 10.4 mph - N/A   Clear
2:30 PM 71.6 °F 53.6 °F 53% 30.18 in - North 11.5 mph - N/A   Clear
3:00 PM 71 °F 54 °F 45% 30.19 in 10 mi North 10.4 mph - -   Scattered Clouds
3:00 PM 71.6 °F 53.6 °F 53% 30.18 in - North 10.4 mph - N/A   Clear
3:30 PM 69.8 °F 53.6 °F 56% 30.18 in - North 9.2 mph - N/A   Clear
4:00 PM 69.8 °F 55.4 °F 60% 30.18 in - North 10.4 mph - N/A   Clear
5:00 PM 69.8 °F 55.4 °F 60% 30.21 in - NNE 5.8 mph - N/A   Clear
5:30 PM 69.8 °F 55.4 °F 60% 30.21 in - NNE 6.9 mph - N/A   Clear
6:00 PM 68.0 °F 55.4 °F 64% 30.21 in - North 6.9 mph - N/A   Clear
6:30 PM 68.0 °F 55.4 °F 64% 30.21 in - North 6.9 mph - N/A   Clear
7:00 PM 68.0 °F 57.2 °F 68% 30.21 in - North 6.9 mph - N/A   Clear
7:30 PM 68.0 °F 55.4 °F 64% 30.21 in - North 11.5 mph - N/A   Clear
8:00 PM 68.0 °F 55.4 °F 64% 30.21 in - NNW 6.9 mph - N/A   Clear
8:30 PM 68.0 °F 55.4 °F 64% 30.21 in - NNW 9.2 mph - N/A   Clear
9:00 PM 68 °F 55 °F 53% 30.24 in 10 mi NNW 3.5 mph - -   Scattered Clouds
9:00 PM 68.0 °F 55.4 °F 64% 30.21 in - NNW 3.5 mph - N/A   Clear
10:00 PM 66.2 °F 55.4 °F 68% 30.21 in - Variable 2.3 mph - N/A   Clear
11:00 PM 66.2 °F 55.4 °F 68% 30.21 in - WSW 3.5 mph - N/A   Clear
11:30 PM 66.2 °F 55.4 °F 68% 30.21 in - West 3.5 mph - N/A   Clear